Miscellaneous Local Product
Issued by NWS North Platte, NE

Home | Current Version | Previous Version | Text Only | Print | Product List | Glossary On
Versions: 1 2 3 4 5 6 7 8 9 10 11 12 13 14 15 16 17 18 19 20 21 22 23 24 25 26 27 28 29 30 31 32 33 34 35 36 37 38 39 40 41 42 43 44 45 46 47 48 49 50
000
AXUS43 KLBF 221210
MISLBF


WESTERN AND NORTH CENTRAL NEBRASKA HOURLY WEATHER ROUNDUP
NATIONAL WEATHER SERVICE NORTH PLATTE NE
700 AM CDT FRI MAY 22 2015

***STATIONS NOT REPORTING VARIABLES SUCH AS SKY/WEATHER OR
PRESSURE ARE PROVIDED BY THE NEBRASKA DEPARTMENT OF
ROADS...RAWS...AND APRS NETWORKS...AND ARE NOT UNDER
NATIONAL WEATHER SERVICE QUALITY CONTROL***

...OBSERVATIONS IN AND NEAR THE EASTERN PANHANDLE OF NEBRASKA...

CITY           SKY/WX    TMP DP  RH WIND       PRES   REMARKS
PINE RIDGE     CLOUDY    51  42  71 SE12      30.09F
CHADRON        CLOUDY    51  44  77 SE14      30.08S
ALLIANCE       CLOUDY    48  44  86 SE10      30.09R
SIDNEY         CLOUDY    47  43  86 SE9       30.08S
WHITECLAY        N/A     48  42  79 E8          N/A
BIG SPRINGS      N/A     48  45  90 E7          N/A
$$

...OBSERVATIONS IN NORTH CENTRAL NEBRASKA...

CITY           SKY/WX    TMP DP  RH WIND       PRES   REMARKS
VALENTINE      MOCLDY    44  39  82 E3        30.15S
THEDFORD       CLOUDY    41  40  94 CALM      30.16S
AINSWORTH      MOCLDY    42  39  88 S3        30.16S
O`NEILL        MOCLDY    44  38  79 CALM      30.18F
ORD            CLOUDY    38  37  97 CALM      30.18R
BROKEN BOW     MOCLDY    41  39  93 CALM      30.17S
BROWNLEE         N/A     47  40  78 E7          N/A
BREWSTER         N/A     40  38  92 CALM        N/A
ROSE             N/A     47  40  77 CALM        N/A
NEWPORT          N/A     41  37  87 CALM        N/A
COMSTOCK         N/A     44  41  89 CALM        N/A
$$

...OBSERVATIONS IN SOUTHWEST NEBRASKA AND FAR NORTHEAST COLORADO...

CITY           SKY/WX    TMP DP  RH WIND       PRES   REMARKS
WRAY           RAIN     N/A N/A N/A SE12      30.10S
IMPERIAL       LGT RAIN  48  43  82 SE12      30.12R
OGALLALA       CLOUDY    47  45  90 SE8       30.13R
NORTH PLATTE   MOCLDY    44  41  89 E8        30.15R
MCCOOK         CLOUDY    48  44  86 SE5       30.14S
LEXINGTON      CLOUDY    45  43  93 E3        30.17S
PAXTON           N/A     47  44  91 SE10        N/A
GOTHENBURG       N/A     45  40  84 E3          N/A
CALLAWAY         N/A     45  43  92 SE3         N/A
$$

...NORTH PLATTE AREA...

CITY           SKY/WX    TMP DP  RH WIND       PRES   REMARKS
AIRPORT        MOCLDY    44  41  89 E8        30.15R
$$

...SOME WEATHER OBSERVATIONS FROM AROUND THE REGION...

CITY           SKY/WX    TMP DP  RH WIND       PRES   REMARKS
DENVER         LGT RAIN  46  44  93 E9        30.00S
LARAMIE        LGT RAIN  41  40  96 SE12      30.00F
CHEYENNE       FOG       42  42 100 SE14      30.03S VSB 1/4
SCOTTSBLUFF    CLOUDY    49  45  86 E14       30.07R
RAPID CITY     CLOUDY    48  45  89 E5        30.09F
PIERRE         PTCLDY    42  37  82 NE5       30.15S
WINNER         FAIR      45  37  73 CALM      30.16S
SIOUX FALLS    PTCLDY    44  41  89 CALM      30.19R
OMAHA          MOCLDY    50  44  80 CALM      30.21S
GRAND ISLAND   MOCLDY    44  42  93 CALM      30.20R
KANSAS CITY    PTCLDY    53  48  83 NE3       30.23R
WICHITA        CLOUDY    52  48  86 SW6       30.27R
HAYS           CLOUDY    50  43  76 S13       30.21R
LIBERAL        CLOUDY    52  46  82 SE14      30.15R
GOODLAND       RAIN      47  46  97 S16       30.10S
$$



USA.gov is the U.S. government's official web portal to all federal, state and local government web resources and services.